Main page
METAR-TAF:

METAR-TAF

Airports :

Iranshahr, Iran

latitude: 27-12N, longitude: 060-42E, elevation: 591 m

Current weather observation

The report was made 1 hour and 14 minutes ago, at 06:00 UTC
Wind 4 kt from the South/Southeast
Temperature 41°C
Humidity 10%
Pressure 1002 hPa
Visibility: 8000 m

METAR: OIZI 300600Z 16004KT 8000 NSC 41/04 Q1002

Time: 11:44 (07:14 UTC)


TAF: missing

Weather observations and forecasts of more than 4000 airports (METAR and TAF reports).

The available stations are represented by yellow and red dots on the map.

Hover mouse over dot to see the name of the station.

Then click to see weather observations and forecasts.

To change the map : click on the green buttons with a black cross to zoom in, on the green button with a dash to zoom out, or on the green arrows for adjacent maps.


METAR-TAF: